Back to catalog

SL-12 DEB

AliveHEO
NORAD 23292·DEBRIS·🇷🇺 Russia

Launched Dec 24, 1985 from Baikonur Cosmodrome

Loading…

Next Passes (next 24 hours)

TLE

FreshSource: Space-Track

Epoch: Sep 14, 2026, 00:50 UTC

1 23292U 85118P   26257.03540412  .00000036  00000-0  19945-3 0  9992
2 23292  65.3754 273.8610 5493217 284.1884  23.1124  4.52205468544522

Track SL-12 DEB in real time with AllMySat

Download on the App Store